DECAYED

STARLINK-2210, 47777 (Decayed)

Orbit data source: Space-Track

STARLINK-2210, 47777 was a payload satellite owned by SpaceX/Seattle (US) in LEO that was launched on Thu, 04 Mar 2021 UTC via an FALCON 9 launch vehicle from the Air Force Eastern Test Range (AFETR). Payload-class satellites include a variety of spacecraft equipped with specific instruments for various scientific and technological missions. These include communications satellites like Starlink; space stations such as the ISS; scientific satellites like the Hubble; Earth observation satellites from companies like Planet Labs, Umbra, and HawkEye 360; GPS; miniature CubeSats for education and research; and military/defense satellites.

Not visible in the next 10 days
Identifier
47777, 2021-017BH
Orbit
Decayed
Country
Flag of USUS
Related business
Manufacturer
SpaceX/Seattle
Mission
Decayed Commercial Communications
Bus & Motor
STARLINK, Unknown motor
Mass
260 kg wet, ~248 kg dry
Launch date (UTC)
2021-03-04 (5 years ago)
Launch vehicle
FALCON 9
Launch site
Air Force Eastern Test Range (AFETR)
Object type
Payload
Rocket body
Debris
Shape & HBR
Box + 1 Pan, 10.1 m
Radar Cross Section
13.562 m², Large (>1 m²)

Expand to show TLE details & history
Last TLE update: 1 year ago

TLE from 1 year ago
0 STARLINK-2210
1 47777U 21017BH  25190.86836580  .16444616  12527-4  42865-3 0  9995
2 47777  53.0249 173.7874 0007960 277.9953 167.2142 16.45244964241160
Epoch: 2025-07-09T20:50Z
TLE epoch observation values (Epoch: 2025-07-09T20:50:26.805Z)
Latitude
52.92074°
Longitude
15.2246°
Altitude
163.37 km
Speed
7.812 km/s
True Right ascension
17h 03m 30s
True Declination
52° 44' 24"
Sunlit
Object was in daylight at epoch
Visualization orbit readout
Latitude
Unknown
Longitude
Unknown
Altitude
Unknown
Speed
Unknown
Apparent Right ascension
Unknown
Apparent Declination
Unknown
Sunlit
N/A
Visualization observer readout
Local Sidereal Time
02:51:32
Azimuth
Unknown
Elevation
Unknown
Doppler factor
Unknown
Orbital elements
Apogee altitude
157.377 km
Perigee altitude
146.981 km
Semi-major axis
6,530.316 km
Eccentricity
0.0008
Inclination
53.0249°
RAAN
173.7874°
Arg. of periapsis
277.9953°
True anomaly
167.23437°
Mean anomaly
167.2142°
Eccentric anomaly
167.22429°
Mean motion
4.11284 °/min
Orbital period
87.53 mins
BSTAR
0.00042865
Loading maneuver chart data...
Computing Atmospheric mass density...
Loading historical data...
Loading historical data...
Loading historical data...
Loading historical data...
Loading historical data...
Loading historical data...
Loading historical data...

Documentation

Showing up to 5 results
|